星链-35067(STARLINK-35067)

导读 | 豆包AI

STARLINK-35067是由美国于2025年9月6日发射的卫星,隶属于SpaceX星链星座网络。星链项目旨在构建全球覆盖的低轨卫星互联网,为偏远地区等提供高速宽带接入服务,该卫星入轨后将补充星链卫星网络,进一步提升星座容量与覆盖能力,推动全球卫星通信网络的建设布局。

基本信息
目录编号:
65527
目录名称:
STARLINK-35067
国际标识:
2025-200H
轨道中心:
EARTH
卫星名称:
星链-35067
卫星全名:
星链-35067(STARLINK-35067)
卫星状态:
在轨 (已飞行189 天)
发射日期:
2025-09-06 UTC
国别 :
美国 (US)
星等 :
--
轨道信息
数据来源 国际轨道数据
星历时间: 2026-03-14T05:55:43+0800
12小时前
查看轨道信息
半长轴: 6927.632km
偏心率: 0.0001316
轨道倾角: 97.603°
近地点辐角 94.534°
升交点赤经 143.917°
平近点角 265.603°
近地点: 548.583km
远地点: 550.407km
周期: 95.639分钟
每日圈数: 15.056555
详细信息
固有亮度:
5
最大亮度:
2.5
卫星平台:
Starlink V1.0
覆盖范围:
全球
运营商:
太空探索技术公司
运营商所在国:
美国
制造商(研发单位):
太空探索技术公司
制造商所在国:
美国
使用方式:
暂无
卫星简介
Starlink 计划是 SpaceX 推出的全球卫星互联网项目,通过发射低轨道卫星,为全球尤其是偏远地区提供高速、低延迟的互联网服务。自 2019 年起,Starlink 已部署数千颗卫星,旨在缩小全球数字鸿沟,推动互联网普及。该项目还为军事、航空等行业提供通信支持,带来广泛经济效益。
2D轨道图
3D轨道图
轨道高度分析图
轨道倾角分析图
轨道综合分析图
查看轨道综合分析图